Precipitable_Water
0.99 0.93 0.91 0.97 1.04 1.07 1.09 1.10 1.18 1.21 1.29 1.33 1.33 1.34 1.36 1.40 1.39 1.42 1.40 1.42 1.45 1.40
0.90 0.90 0.89 0.91 0.97 1.04 1.06 1.10 1.16 1.19 1.22 1.27 1.27 1.31 1.38 1.39 1.38 1.39 1.41 1.43 1.45 1.37
0.77 0.85 0.92 0.92 0.88 0.89 0.97 0.98 1.02 1.05 1.10 1.19 1.21 1.24 1.28 1.31 1.35 1.35 1.42 1.40 1.40 1.39
0.70 0.71 0.76 0.85 0.91 0.87 0.85 0.91 0.88 0.91 0.93 0.98 1.01 1.09 1.15 1.20 1.25 1.23 1.29 1.32 1.37 1.36
0.74 0.68 0.66 0.68 0.77 0.78 0.81 0.75 0.69 0.71 0.76 0.82 0.85 0.90 0.97 1.00 1.09 1.12 1.17 1.22 1.25 1.27
0.69 0.66 0.65 0.62 0.62 0.65 0.64 0.61 0.60 0.61 0.60 0.59 0.63 0.70 0.76 0.79 0.85 0.89 0.97 1.07 1.12 1.18
0.59 0.55 0.53 0.51 0.50 0.50 0.50 0.48 0.49 0.49 0.51 0.51 0.51 0.52 0.54 0.56 0.60 0.65 0.68 0.75 0.83 0.92
0.38 0.36 0.34 0.32 0.30 0.31 0.28 0.28 0.27 0.28 0.27 0.29 0.30 0.33 0.35 0.36 0.37 0.39 0.42 0.48 0.56 0.62
0.24 0.22 0.21 0.20 0.19 0.18 0.16 0.16 0.16 0.16 0.16 0.17 0.18 0.20 0.22 0.23 0.24 0.25 0.27 0.29 0.35 0.40
0.17 0.15 0.14 0.14 0.13 0.12 0.13 0.14 0.14 0.14 0.15 0.15 0.15 0.17 0.18 0.20 0.21 0.20 0.21 0.22 0.26 0.28
0.12 0.12 0.13 0.14 0.14 0.15 0.16 0.15 0.16 0.16 0.17 0.18 0.17 0.19 0.19 0.19 0.20 0.19 0.18 0.20 0.21 0.22
0.15 0.15 0.16 0.16 0.16 0.17 0.17 0.17 0.17 0.18 0.18 0.19 0.20 0.21 0.22 0.22 0.22 0.20 0.18 0.19 0.20 0.22
0.18 0.18 0.17 0.18 0.18 0.19 0.20 0.20 0.21 0.20 0.21 0.22 0.23 0.24 0.25 0.25 0.25 0.22 0.22 0.22 0.21 0.21
0.20 0.20 0.20 0.20 0.21 0.22 0.22 0.22 0.21 0.21 0.22 0.22 0.24 0.24 0.25 0.25 0.25 0.24 0.23 0.22 0.22 0.23
Wind_Speed
17 19 20 21 21 22 23 24 27 27 28 30 32 35 37 37 38 37 40 41 44 44
12 13 15 16 18 19 20 22 22 24 26 28 28 28 27 33 33 35 36 38 39 41
10 11 11 12 14 15 17 16 18 19 21 24 26 27 25 25 26 28 31 34 39 40
7 8 11 12 11 12 14 17 17 17 18 20 21 22 24 24 26 25 27 28 29 37
5 7 9 11 13 14 14 15 17 18 17 17 18 20 21 23 23 23 24 27 28 31
4 6 8 9 11 13 14 15 16 16 18 19 19 20 20 21 23 23 24 26 27 28
6 6 7 8 10 11 13 15 17 19 21 21 23 24 24 24 25 25 26 26 27 28
8 10 11 13 14 15 17 18 20 22 23 24 25 25 27 28 29 29 30 31 31 32
11 13 14 16 17 19 20 22 23 24 26 27 28 29 30 31 32 33 34 35 36 36
15 17 19 20 22 23 25 27 28 29 30 31 33 34 35 36 37 38 39 40 41 42
20 22 23 25 26 28 29 30 32 33 34 35 36 38 39 40 41 42 43 44 45 47
24 26 27 29 30 32 33 34 35 36 37 39 40 41 42 43 44 45 47 47 48 50
28 30 31 33 34 35 36 37 38 40 40 41 42 43 44 45 46 47 48 49 50 51
32 33 34 35 36 37 39 40 41 42 42 43 44 44 46 47 48 49 50 51 52 53
Wind_Direction
240 242 243 249 251 252 255 257 260 262 263 264 264 265 265 263 261 260 255 253 250 249
235 238 243 248 251 254 258 259 262 264 266 264 269 270 272 262 263 259 257 251 249 251
236 240 246 252 256 255 260 263 266 270 272 270 270 270 269 269 270 265 256 256 250 252
240 253 255 255 266 262 265 266 275 278 278 279 277 272 267 270 271 269 264 263 260 255
271 270 272 268 263 270 275 276 277 282 279 283 278 278 278 272 275 273 270 265 269 263
296 299 291 282 279 276 277 280 283 282 282 284 282 282 284 280 275 274 272 269 268 271
302 302 301 298 296 287 284 287 286 286 286 283 282 282 283 282 282 279 276 275 272 272
301 301 299 296 296 293 291 290 291 289 288 287 285 284 285 284 281 280 279 277 275 273
309 306 304 303 301 299 297 296 295 293 291 290 288 287 287 285 283 282 281 279 278 277
307 305 304 302 301 300 298 296 295 294 292 291 289 288 287 286 283 282 281 279 278 276
308 306 305 304 302 301 299 298 296 295 293 292 290 290 288 287 284 283 282 280 278 276
306 305 305 304 303 302 300 299 298 296 294 293 292 291 290 288 286 285 284 282 280 278
305 305 304 303 303 301 300 299 298 297 296 294 292 292 291 290 288 286 285 284 282 280
305 304 303 303 303 302 302 301 300 299 297 295 294 293 293 292 289 288 287 285 284 282